EW4443 Weather Reports


time (UTC)temp
C
wind
direction
speed
KPH
gust
KPH
rain 1hr
cm
rain 24hr
cm
rain mn
cm
humidity
%
barometer
mb
20260906120509 27 180 0.0 0.0 0.00 0.00 0.00 53 1009.3
20260906120009 27 180 0.0 0.0 0.00 0.00 0.00 51 1009.0
20260906115508 27 180 0.0 0.0 0.00 0.00 0.00 51 1009.3
20260906115008 27 180 0.0 0.0 0.00 0.00 0.00 50 1009.0
20260906114508 27 180 0.0 0.0 0.00 0.00 0.00 51 1009.3
20260906114007 27 180 0.0 0.0 0.00 0.00 0.00 50 1009.3
20260906113739 27 180 0.0 0.0 0.00 0.00 0.00 50 1009.3
20260906113009 28 180 0.0 0.0 0.00 0.00 0.00 51 1009.0
20260906112509 28 180 0.0 0.0 0.00 0.00 0.00 50 1009.0
20260906112009 28 180 0.0 0.0 0.00 0.00 0.00 50 1009.3
20260906111509 28 180 0.0 0.0 0.00 0.00 0.00 50 1009.0
20260906111009 28 180 0.0 0.0 0.00 0.00 0.00 51 1009.0
20260906110509 28 180 0.0 0.0 0.00 0.00 0.00 50 1009.0
20260906110239 28 180 0.0 0.0 0.00 0.00 0.00 50 1009.0
20260906105738 28 180 0.0 0.0 0.00 0.00 0.00 50 1009.3
20260906105009 28 180 0.0 0.0 0.00 0.00 0.00 50 1009.3
20260906104509 28 180 0.0 0.0 0.00 0.00 0.00 50 1009.0
20260906104008 28 180 0.0 0.0 0.00 0.00 0.00 50 1009.3
20260906103740 28 180 0.0 0.0 0.00 0.00 0.00 49 1009.0
20260906103009 28 180 0.0 0.0 0.00 0.00 0.00 50 1009.0
20260906102740 28 180 0.0 0.0 0.00 0.00 0.00 50 1009.0
20260906102009 28 180 0.0 0.0 0.00 0.00 0.00 48 1009.0
20260906101508 28 180 0.0 0.0 0.00 0.00 0.00 49 1009.0
20260906101007 28 180 0.0 0.0 0.00 0.00 0.00 48 1009.0
20260906100508 28 180 0.0 0.0 0.00 0.00 0.00 49 1009.3
20260906100240 28 180 0.0 0.0 0.00 0.00 0.00 49 1009.3
20260906095509 28 180 0.0 0.0 0.00 0.00 0.00 49 1009.0
20260906095009 28 180 0.0 0.0 0.00 0.00 0.00 49 1009.0
20260906094509 28 180 0.0 0.0 0.00 0.00 0.00 48 1009.0
20260906094013 28 180 0.0 0.0 0.00 0.00 0.00 46 1009.0
20260906094009 28 180 0.0 0.0 0.00 0.00 0.00 46 1009.0
20260906093008 28 180 0.0 0.0 0.00 0.00 0.00 46 1009.3
20260906092739 28 180 0.0 0.0 0.00 0.00 0.00 46 1009.0
20260906092239 29 180 0.0 0.0 0.00 0.00 0.00 45 1009.0
20260906091509 29 203 0.0 0.0 0.00 0.00 0.00 46 1009.0
20260906091008 29 45 0.0 0.0 0.00 0.00 0.00 46 1009.0
20260906090509 29 45 0.0 0.0 0.00 0.00 0.00 46 1009.0
20260906090009 29 45 0.0 1.6 0.00 0.00 0.00 45 1009.0
20260906085509 29 45 0.0 1.6 0.00 0.00 0.00 45 1009.0
20260906085009 29 45 0.0 1.6 0.00 0.00 0.00 45 1009.0
20260906084739 29 23 0.0 0.0 0.00 0.00 0.00 43 1009.0
20260906084008 29 338 0.0 0.0 0.00 0.00 0.00 44 1009.0
20260906083738 29 338 0.0 0.0 0.00 0.00 0.00 45 1009.3
20260906083007 30 338 0.0 0.0 0.00 0.00 0.00 45 1009.0
20260906082509 30 338 0.0 0.0 0.00 0.00 0.00 45 1009.0
20260906082009 30 338 0.0 0.0 0.00 0.00 0.00 43 1009.3
20260906081509 30 338 0.0 0.0 0.00 0.00 0.00 45 1009.3
20260906081008 30 338 0.0 0.0 0.00 0.00 0.00 45 1009.3
20260906080509 30 338 0.0 0.0 0.00 0.00 0.00 44 1009.3
20260906080008 30 338 0.0 0.0 0.00 0.00 0.00 44 1009.3
20260906075509 30 338 0.0 0.0 0.00 0.00 0.00 43 1009.3
20260906074950 30 0 0.0 0.0 0.00 0.00 0.00 43 1009.3
20260906074721 30 23 0.0 0.0 0.00 0.00 0.00 41 1009.0
20260906073951 30 23 0.0 0.0 0.00 0.00 0.00 41 1009.3
20260906073450 30 23 0.0 0.0 0.00 0.00 0.00 40 1009.3
20260906072950 30 23 0.0 0.0 0.00 0.00 0.00 43 1009.7
20260906072450 30 23 0.0 0.0 0.00 0.00 0.00 44 1009.7
20260906071950 30 23 0.0 0.0 0.00 0.00 0.00 43 1009.7
20260906071448 30 315 0.0 0.0 0.00 0.00 0.00 43 1009.3
20260906071220 30 45 0.0 0.0 0.00 0.00 0.00 43 1009.3
20260906070449 30 45 0.0 0.0 0.00 0.00 0.00 43 1009.3
20260906065949 31 45 0.0 0.0 0.00 0.00 0.00 41 1009.3
20260906065450 31 45 0.0 0.0 0.00 0.00 0.00 41 1009.3
20260906064950 31 45 0.0 0.0 0.00 0.00 0.00 41 1009.3
20260906064451 31 338 0.0 0.0 0.00 0.00 0.00 40 1009.7
20260906064221 31 338 0.0 0.0 0.00 0.00 0.00 41 1009.7
20260906063450 31 23 0.0 0.0 0.00 0.00 0.00 40 1009.7
20260906062948 31 23 0.0 0.0 0.00 0.00 0.00 40 1009.7
20260906062449 31 338 0.0 0.0 0.00 0.00 0.00 40 1009.7
20260906061949 31 315 0.0 0.0 0.00 0.00 0.00 39 1009.7
20260906061449 31 270 0.0 0.0 0.00 0.00 0.00 40 1009.7
20260906061221 31 270 0.0 0.0 0.00 0.00 0.00 40 1009.7
20260906060450 31 270 0.0 0.0 0.00 0.00 0.00 40 1009.7
20260906055950 31 23 0.0 0.0 0.00 0.00 0.00 39 1009.7
20260906055450 31 23 0.0 0.0 0.00 0.00 0.00 39 1009.7
20260906054950 32 45 0.0 0.0 0.00 0.00 0.00 37 1009.7
20260906054451 32 45 0.0 0.0 0.00 0.00 0.00 39 1009.7
20260906053950 32 23 0.0 0.0 0.00 0.00 0.00 39 1009.7
20260906053720 32 338 0.0 0.0 0.00 0.00 0.00 37 1009.3
20260906052949 32 338 0.0 0.0 0.00 0.00 0.00 37 1009.7
20260906052719 32 338 0.0 0.0 0.00 0.00 0.00 37 1009.3
20260906051950 32 0 0.0 0.0 0.00 0.00 0.00 37 1009.7
20260906051451 32 45 0.0 0.0 0.00 0.00 0.00 37 1009.7
20260906050950 32 45 0.0 0.0 0.00 0.00 0.00 37 1009.7
20260906050450 32 45 0.0 0.0 0.00 0.00 0.00 35 1009.7
20260906045950 32 45 0.0 3.2 0.00 0.00 0.00 35 1009.7
20260906045451 32 0 0.0 3.2 0.00 0.00 0.00 35 1009.7
20260906044949 33 315 0.0 1.6 0.00 0.00 0.00 35 1009.7
20260906044449 33 315 0.0 0.0 0.00 0.00 0.00 35 1009.7
20260906043949 33 315 0.0 0.0 0.00 0.00 0.00 35 1009.3
20260906043450 33 315 0.0 0.0 0.00 0.00 0.00 34 1010.0
20260906042950 33 315 0.0 1.6 0.00 0.00 0.00 34 1009.7
20260906042450 33 315 0.0 3.2 0.00 0.00 0.00 32 1009.7
20260906041950 33 293 0.0 4.8 0.00 0.00 0.00 32 1009.7
20260906041454 33 338 0.0 6.4 0.00 0.00 0.00 32 1009.7
20260906041450 33 23 0.0 4.8 0.00 0.00 0.00 32 1009.7
20260906041207 33 338 0.0 6.4 0.00 0.00 0.00 32 1010.0
20260906035948 33 0 0.0 6.4 0.00 0.00 0.00 32 1010.0
20260906035449 33 45 0.0 6.4 0.00 0.00 0.00 32 1009.7
20260906034949 33 315 0.0 8.0 0.00 0.00 0.00 32 1009.7
20260906034450 33 293 1.6 8.0 0.00 0.00 0.00 31 1009.7
20260906033950 33 338 1.6 4.8 0.00 0.00 0.00 31 1009.7
20260906033450 34 23 1.6 8.0 0.00 0.00 0.00 30 1009.3
20260906032950 34 338 1.6 8.0 0.00 0.00 0.00 31 1009.3
20260906032724 34 338 1.6 11.3 0.00 0.00 0.00 30 1009.0
20260906032450 34 338 1.6 11.3 0.00 0.00 0.00 30 1009.3
20260906031450 34 23 1.6 11.3 0.00 0.00 0.00 30 1009.0
20260906030949 34 338 1.6 9.7 0.00 0.00 0.00 30 1009.0
20260906030449 34 0 1.6 8.0 0.00 0.00 0.00 30 1009.0
20260906025949 34 45 1.6 9.7 0.00 0.00 0.00 30 1009.0
20260906025450 35 45 1.6 9.7 0.00 0.00 0.00 30 1009.0
20260906024950 35 203 1.6 8.0 0.00 0.00 0.00 30 1009.0
20260906024449 35 23 1.6 9.7 0.00 0.00 0.00 30 1009.0
20260906023950 35 0 1.6 9.7 0.00 0.00 0.00 29 1009.0
20260906023448 35 270 1.6 8.0 0.00 0.00 0.00 30 1009.0
20260906022950 35 338 1.6 8.0 0.00 0.00 0.00 30 1008.7
20260906022449 35 338 1.6 8.0 0.00 0.00 0.00 30 1009.0
20260906021948 35 315 1.6 8.0 0.00 0.00 0.00 30 1008.7
20260906021449 35 270 1.6 11.3 0.00 0.00 0.00 29 1008.7
20260906020950 35 270 1.6 11.3 0.00 0.00 0.00 30 1008.7
20260906020449 35 270 1.6 11.3 0.00 0.00 0.00 27 1008.7
20260906015948 36 270 1.6 11.3 0.00 0.00 0.00 27 1008.7
20260906015449 36 45 1.6 9.7 0.00 0.00 0.00 27 1009.0
20260906014948 36 270 1.6 11.3 0.00 0.00 0.00 27 1009.0
20260906014447 36 270 1.6 11.3 0.00 0.00 0.00 27 1008.7
20260906013948 36 338 1.6 11.3 0.00 0.00 0.00 27 1009.0
20260906013718 36 45 1.6 11.3 0.00 0.00 0.00 27 1008.7
20260906012949 36 270 1.6 12.9 0.00 0.00 0.00 27 1008.7
20260906012449 36 338 1.6 12.9 0.00 0.00 0.00 27 1008.7
20260906011949 37 68 1.6 12.9 0.00 0.00 0.00 27 1008.7
20260906011449 37 293 3.2 14.5 0.00 0.00 0.00 27 1008.7
20260906010948 37 315 3.2 14.5 0.00 0.00 0.00 27 1008.7
20260906010448 37 338 1.6 12.9 0.00 0.00 0.00 25 1008.7
20260906005947 37 0 1.6 16.1 0.00 0.00 0.00 25 1008.7
20260906005447 37 338 3.2 16.1 0.00 0.00 0.00 25 1008.7
20260906004947 38 270 3.2 12.9 0.00 0.00 0.00 25 1008.7
20260906004448 38 270 1.6 12.9 0.00 0.00 0.00 25 1008.7
20260906003948 38 338 3.2 12.9 0.00 0.00 0.00 25 1008.7
20260906003719 38 338 3.2 14.5 0.00 0.00 0.00 25 1008.7
20260906002948 38 0 3.2 14.5 0.00 0.00 0.00 25 1008.7
20260906002719 38 0 3.2 14.5 0.00 0.00 0.00 25 1008.7
20260906001947 38 338 3.2 14.5 0.00 0.00 0.00 25 1008.7
20260906001447 38 270 1.6 12.9 0.00 0.00 0.00 25 1008.7
20260906000946 38 293 3.2 16.1 0.00 0.00 0.00 25 1008.3
20260906000448 39 0 3.2 16.1 0.00 0.00 0.00 25 1008.3
20260906000221 39 23 3.2 12.9 0.00 0.00 0.00 25 1008.3
20260905235718 39 270 3.2 12.9 0.00 0.00 0.00 25 1008.3
20260905235218 39 23 3.2 11.3 0.00 0.00 0.00 25 1008.7
20260905234447 39 338 1.6 12.9 0.00 0.00 0.00 25 1008.7
20260905233947 40 248 1.6 12.9 0.00 0.00 0.00 25 1008.7
20260905233717 40 248 1.6 12.9 0.00 0.00 0.00 25 1008.7
20260905232946 40 113 3.2 12.9 0.00 0.00 0.00 25 1008.7
20260905232446 40 338 1.6 12.9 0.00 0.00 0.00 27 1008.7
20260905231947 40 90 3.2 12.9 0.00 0.00 0.00 27 1008.7
20260905231447 40 338 1.6 12.9 0.00 0.00 0.00 27 1008.7
20260905230947 40 338 1.6 12.9 0.00 0.00 0.00 27 1008.7
20260905230447 40 0 3.2 12.9 0.00 0.00 0.00 27 1008.3
20260905225947 40 338 3.2 12.9 0.00 0.00 0.00 27 1008.7
20260905225447 40 270 3.2 12.9 0.00 0.00 0.00 27 1008.3
20260905224946 40 248 3.2 12.9 0.00 0.00 0.00 27 1008.7
20260905224446 40 0 1.6 8.0 0.00 0.00 0.00 29 1008.7
20260905223946 40 338 1.6 8.0 0.00 0.00 0.00 29 1008.7
20260905223445 40 45 1.6 9.7 0.00 0.00 0.00 29 1008.7
20260905223217 39 23 1.6 9.7 0.00 0.00 0.00 29 1008.7
20260905222446 39 0 1.6 12.9 0.00 0.00 0.00 29 1008.7
20260905221946 39 338 1.6 12.9 0.00 0.00 0.00 29 1009.0
20260905221446 39 23 1.6 8.0 0.00 0.00 0.00 27 1009.0
20260905220947 39 270 1.6 9.7 0.00 0.00 0.00 29 1009.0
20260905220445 39 45 1.6 11.3 0.00 0.00 0.00 29 1009.3
20260905215944 39 180 1.6 11.3 0.00 0.00 0.00 27 1009.0
20260905215445 39 270 3.2 11.3 0.00 0.00 0.00 29 1009.0
20260905214945 39 293 1.6 11.3 0.00 0.00 0.00 29 1009.3
20260905214446 39 270 0.0 8.0 0.00 0.00 0.00 30 1009.3
20260905213946 39 338 1.6 14.5 0.00 0.00 0.00 30 1009.3
20260905213446 39 338 1.6 14.5 0.00 0.00 0.00 30 1009.3
20260905212946 39 338 1.6 9.7 0.00 0.00 0.00 29 1009.7
20260905212446 39 23 1.6 12.9 0.00 0.00 0.00 30 1009.3
20260905211944 38 270 1.6 12.9 0.00 0.00 0.00 30 1009.7
20260905211444 38 270 1.6 11.3 0.00 0.00 0.00 30 1009.7
20260905210945 38 315 1.6 11.3 0.00 0.00 0.00 30 1009.7
20260905210444 38 270 1.6 9.7 0.00 0.00 0.00 29 1010.0
20260905205946 38 225 1.6 8.0 0.00 0.00 0.00 29 1010.0
20260905205446 38 270 0.0 9.7 0.00 0.00 0.00 30 1010.0
20260905205217 38 45 1.6 9.7 0.00 0.00 0.00 30 1010.5
20260905204445 38 315 1.6 9.7 0.00 0.00 0.00 30 1010.0
20260905203946 38 158 1.6 12.9 0.00 0.00 0.00 29 1010.5
20260905203444 38 293 1.6 12.9 0.00 0.00 0.00 29 1010.5
20260905202944 38 293 1.6 8.0 0.00 0.00 0.00 30 1010.5
20260905202714 38 0 1.6 9.7 0.00 0.00 0.00 30 1010.8
20260905201944 38 0 1.6 9.7 0.00 0.00 0.00 31 1010.8
20260905201445 38 45 0.0 6.4 0.00 0.00 0.00 31 1010.8
20260905200944 38 203 0.0 6.4 0.00 0.00 0.00 30 1010.8
20260905200445 38 203 1.6 8.0 0.00 0.00 0.00 30 1010.8
20260905200215 38 135 1.6 8.0 0.00 0.00 0.00 30 1010.8
20260905195445 38 68 1.6 6.4 0.00 0.00 0.00 30 1010.8
20260905195215 38 180 1.6 8.0 0.00 0.00 0.00 29 1011.1
20260905194444 38 158 1.6 8.0 0.00 0.00 0.00 29 1011.1
20260905193944 38 293 1.6 6.4 0.00 0.00 0.00 29 1011.1
20260905193444 38 270 1.6 9.7 0.00 0.00 0.00 29 1011.1
20260905192945 38 315 1.6 9.7 0.00 0.00 0.00 30 1011.5
20260905192445 38 68 1.6 8.0 0.00 0.00 0.00 30 1011.8
20260905191945 38 270 1.6 6.4 0.00 0.00 0.00 30 1011.5
20260905191444 38 338 1.6 6.4 0.00 0.00 0.00 30 1011.5
20260905190945 38 45 1.6 6.4 0.00 0.00 0.00 31 1011.5
20260905190444 37 90 0.0 6.4 0.00 0.00 0.00 31 1011.8
20260905185944 37 23 0.0 6.4 0.00 0.00 0.00 31 1011.8
20260905185444 37 45 0.0 4.8 0.00 0.00 0.00 32 1011.8
20260905184944 37 23 0.0 3.2 0.00 0.00 0.00 31 1011.8
20260905184444 37 45 0.0 8.0 0.00 0.00 0.00 31 1011.8
20260905183945 37 203 1.6 8.0 0.00 0.00 0.00 30 1012.1
20260905183447 37 180 0.0 6.4 0.00 0.00 0.00 30 1012.1
20260905182944 37 90 0.0 4.8 0.00 0.00 0.00 30 1012.1
20260905182449 37 315 0.0 3.2 0.00 0.00 0.00 31 1012.1
20260905181944 37 248 0.0 3.2 0.00 0.00 0.00 30 1012.5
20260905181715 37 225 0.0 4.8 0.00 0.00 0.00 30 1012.5
20260905180943 37 0 0.0 4.8 0.00 0.00 0.00 30 1012.1
20260905180444 37 338 0.0 4.8 0.00 0.00 0.00 30 1012.5
20260905175944 37 23 0.0 4.8 0.00 0.00 0.00 30 1012.5
20260905175444 37 270 0.0 1.6 0.00 0.00 0.00 31 1012.5
20260905174945 37 180 0.0 1.6 0.00 0.00 0.00 30 1012.5
20260905174444 37 45 0.0 4.8 0.00 0.00 0.00 31 1012.5
20260905173944 37 23 0.0 4.8 0.00 0.00 0.00 31 1012.1
20260905173444 37 23 0.0 6.4 0.00 0.00 0.00 31 1012.1
20260905172943 36 338 1.6 6.4 0.00 0.00 0.00 34 1012.5
20260905172444 36 45 0.0 4.8 0.00 0.00 0.00 35 1012.1
20260905171943 36 68 0.0 6.4 0.00 0.00 0.00 35 1012.1
20260905171444 35 45 1.6 6.4 0.00 0.00 0.00 35 1012.5
20260905170944 35 90 0.0 3.2 0.00 0.00 0.00 35 1012.5
20260905170445 35 0 0.0 4.8 0.00 0.00 0.00 35 1012.5
20260905165944 35 23 0.0 6.4 0.00 0.00 0.00 35 1012.5
20260905165716 35 45 0.0 6.4 0.00 0.00 0.00 37 1012.5
20260905164944 35 23 0.0 1.6 0.00 0.00 0.00 37 1012.5
20260905164443 34 203 0.0 1.6 0.00 0.00 0.00 35 1012.1
20260905163943 34 180 0.0 6.4 0.00 0.00 0.00 37 1012.1
20260905163443 34 338 1.6 6.4 0.00 0.00 0.00 39 1012.5
20260905162943 33 23 1.6 6.4 0.00 0.00 0.00 40 1012.5
20260905162444 33 68 0.0 4.8 0.00 0.00 0.00 41 1012.5
20260905161945 32 180 0.0 3.2 0.00 0.00 0.00 41 1012.5
20260905161444 32 203 0.0 3.2 0.00 0.00 0.00 41 1012.1
20260905160945 32 248 0.0 3.2 0.00 0.00 0.00 41 1012.1
20260905160444 31 270 0.0 4.8 0.00 0.00 0.00 43 1012.5
20260905155943 31 158 0.0 4.8 0.00 0.00 0.00 44 1012.5
20260905155444 31 180 0.0 4.8 0.00 0.00 0.00 43 1012.5
20260905154943 31 248 0.0 1.6 0.00 0.00 0.00 45 1012.5
20260905154443 31 270 0.0 0.0 0.00 0.00 0.00 44 1012.5
20260905153944 31 23 0.0 1.6 0.00 0.00 0.00 45 1012.5
20260905153445 30 90 0.0 1.6 0.00 0.00 0.00 48 1012.1
20260905152945 30 45 0.0 0.0 0.00 0.00 0.00 48 1012.1
20260905152444 30 248 0.0 0.0 0.00 0.00 0.00 48 1012.1
20260905151944 30 225 0.0 0.0 0.00 0.00 0.00 46 1012.1
20260905151443 30 225 0.0 0.0 0.00 0.00 0.00 48 1012.1
20260905150943 30 225 0.0 0.0 0.00 0.00 0.00 50 1012.1
20260905150443 30 135 0.0 0.0 0.00 0.00 0.00 49 1012.1
20260905145943 29 203 0.0 0.0 0.00 0.00 0.00 49 1012.1
20260905145443 29 180 0.0 3.2 0.00 0.00 0.00 49 1012.1
20260905144944 29 315 0.0 3.2 0.00 0.00 0.00 50 1012.1
20260905144715 28 315 0.0 0.0 0.00 0.00 0.00 50 1012.1
20260905143944 28 45 0.0 0.0 0.00 0.00 0.00 51 1012.1
20260905143445 28 90 0.0 1.6 0.00 0.00 0.00 50 1012.1
20260905142945 28 315 0.0 4.8 0.00 0.00 0.00 50 1012.1
20260905142443 28 180 0.0 4.8 0.00 0.00 0.00 51 1011.8
20260905141943 28 180 0.0 3.2 0.00 0.00 0.00 51 1012.1
20260905141443 27 135 0.0 3.2 0.00 0.00 0.00 53 1011.8
20260905140943 27 203 0.0 0.0 0.00 0.00 0.00 53 1011.8
20260905140444 27 45 0.0 0.0 0.00 0.00 0.00 53 1011.8
20260905135945 27 23 0.0 0.0 0.00 0.00 0.00 53 1011.5
20260905135444 27 158 0.0 0.0 0.00 0.00 0.00 54 1011.8
20260905134944 27 23 0.0 0.0 0.00 0.00 0.00 53 1011.5
20260905134444 27 23 0.0 0.0 0.00 0.00 0.00 53 1011.5
20260905133943 27 68 0.0 0.0 0.00 0.00 0.00 55 1011.5
20260905133437 27 68 0.0 0.0 0.00 0.00 0.00 55 1011.5
20260905132925 27 68 0.0 0.0 0.00 0.00 0.00 54 1011.1
20260905132424 27 68 0.0 0.0 0.00 0.00 0.00 54 1011.1
20260905131925 27 90 0.0 0.0 0.00 0.00 0.00 51 1011.1
20260905131426 27 68 0.0 0.0 0.00 0.00 0.00 53 1011.1
20260905130925 27 90 0.0 0.0 0.00 0.00 0.00 51 1011.1
20260905130426 27 45 0.0 0.0 0.00 0.00 0.00 51 1011.1
20260905125926 27 225 0.0 0.0 0.00 0.00 0.00 50 1011.1
20260905125426 27 203 0.0 3.2 0.00 0.00 0.00 50 1011.1
20260905124926 27 0 0.0 3.2 0.00 0.00 0.00 51 1011.1
20260905124424 27 45 0.0 0.0 0.00 0.00 0.00 51 1011.1
20260905123925 27 0 0.0 0.0 0.00 0.00 0.00 51 1010.8
20260905123424 27 270 0.0 0.0 0.00 0.00 0.00 51 1010.8
20260905123157 27 270 0.0 0.0 0.00 0.00 0.00 50 1010.8
20260905122430 27 180 0.0 0.0 0.00 0.00 0.00 50 1010.8
20260905122426 27 270 0.0 0.0 0.00 0.00 0.00 50 1010.8
20260905121656 27 248 0.0 0.0 0.00 0.00 0.00 50 1010.8
20260905120926 27 338 0.0 0.0 0.00 0.00 0.00 50 1010.8